Weather History for Luverne, MN

Change the Weather History Date:

Wednesday, December 5, 2012

  Actual Average (KFSD) Record (KFSD)
Temperature  
Mean Temperature 36 °F 22 °F  
Max Temperature 50 °F 32 °F 59 °F (1963)
Min Temperature 23 °F 13 °F -11 °F (1950)
Degree Days  
Heating Degree Days 28 43  
Month to date heating degree days 210  
Since 1 July heating degree days 1922  
Cooling Degree Days 0 0  
Month to date cooling degree days 0  
Year to date cooling degree days 690  
Moisture  
Dew Point 21 °F    
Average Humidity 53    
Maximum Humidity 69    
Minimum Humidity 32    
Precipitation  
Precipitation 0.00 in 0.02 in 0.49 in (1953)
Month to date precipitation 0.14  
Year to date precipitation 25.83  
Snow  
Snow 0.00 in 0.30 in 5.30 in (1953)
Month to date snowfall 1.4  
Since 1 July snowfall 10.1  
Snow Depth -    
Sea Level Pressure  
Sea Level Pressure 30.02 in    
Wind  
Wind Speed 12 mph (SSE)    
Max Wind Speed 26 mph    
Max Gust Speed 33 mph    
Visibility 10 miles    
Events      
T = Trace of Precipitation, MM = Missing Value Source: NWS Daily Summary

Daily Weather History Graph

Daily Weather History Graph

Search for Another Location

Airport:

Trip Planner

Search our weather history database for the weather conditions in past years. The results will help you decide how hot, cold, wet, or windy it might be!

Date:

Astronomy

Dec. 05, 2012 Rise Set
Actual Time 7:43 AM CST 4:48 PM CST
Civil Twilight 7:10 AM CST 5:20 PM CST
Nautical Twilight 6:34 AM CST 5:56 PM CST
Astronomical Twilight 6:00 AM CST 6:31 PM CST
Moon 11:48 PM CST (12/5) 11:58 AM CST (12/5)
Length of Visible Light 10h 09m
Length of Day
9h 05m
Waning Gibbous, 59% of the Moon is Illuminated
Dec 5
Waning Gibbous
Dec 6
Last Quarter
Dec 13
New
Dec 19
First Quarter
Dec 28
Full

Hourly Weather History & Observations

Time (CST) Temp. Windchill Dew Point Humidity Pressure Visibility Wind Dir Wind Speed Gust Speed Precip Events Conditions
12:15 AM 23.0 °F 13.9 °F 14.0 °F 68% 30.34 in 10.0 mi ENE 8.1 mph - N/A   Clear
12:35 AM 23.0 °F 13.1 °F 14.0 °F 68% 30.33 in 10.0 mi East 9.2 mph - N/A   Clear
12:55 AM 23.0 °F 13.9 °F 14.0 °F 68% 30.32 in 10.0 mi East 8.1 mph - N/A   Clear
1:15 AM 23.0 °F - 14.0 °F 68% 30.32 in 10.0 mi Calm Calm - N/A   Clear
1:55 AM 23.0 °F 13.9 °F 14.0 °F 68% 30.29 in 10.0 mi East 8.1 mph - N/A   Clear
2:15 AM 23.0 °F 15.8 °F 14.0 °F 68% 30.31 in 10.0 mi East 5.8 mph - N/A   Clear
2:35 AM 23.0 °F 15.8 °F 14.0 °F 68% 30.31 in 10.0 mi ESE 5.8 mph - N/A   Clear
2:55 AM 23.0 °F 15.8 °F 14.0 °F 68% 30.29 in 10.0 mi East 5.8 mph - N/A   Clear
3:15 AM 23.0 °F 15.8 °F 14.0 °F 68% 30.30 in 10.0 mi SE 5.8 mph - N/A   Clear
3:34 AM 23.0 °F 14.7 °F 14.0 °F 68% 30.29 in 10.0 mi ESE 6.9 mph - N/A   Clear
3:55 AM 23.0 °F 14.7 °F 14.0 °F 68% 30.28 in 10.0 mi SE 6.9 mph - N/A   Clear
4:15 AM 23.0 °F 14.7 °F 14.0 °F 68% 30.27 in 10.0 mi SE 6.9 mph - N/A   Clear
4:34 AM 23.0 °F 14.7 °F 14.0 °F 68% 30.27 in 10.0 mi SE 6.9 mph - N/A   Clear
4:55 AM 23.0 °F 12.4 °F 14.0 °F 68% 30.26 in 10.0 mi SE 10.4 mph - N/A   Clear
5:15 AM 23.0 °F 13.9 °F 14.0 °F 68% 30.25 in 10.0 mi SE 8.1 mph - N/A   Clear
5:35 AM 23.0 °F 12.4 °F 14.0 °F 68% 30.25 in 10.0 mi SE 10.4 mph - N/A   Clear
5:55 AM 23.0 °F 12.4 °F 14.0 °F 68% 30.24 in 10.0 mi SE 10.4 mph - N/A   Clear
6:15 AM 23.0 °F 12.4 °F 14.0 °F 68% 30.23 in 10.0 mi SE 10.4 mph - N/A   Clear
6:35 AM 23.0 °F 12.4 °F 14.0 °F 68% 30.22 in 10.0 mi SE 10.4 mph - N/A   Clear
6:55 AM 23.0 °F 13.1 °F 14.0 °F 68% 30.22 in 10.0 mi SE 9.2 mph - N/A   Clear
8:34 AM 26.6 °F 17.5 °F 17.6 °F 69% 30.19 in 10.0 mi SSE 9.2 mph 16.1 mph N/A   Clear
8:55 AM 26.6 °F 15.7 °F 17.6 °F 69% 30.17 in 10.0 mi SSE 12.7 mph - N/A   Clear
9:15 AM 28.4 °F 17.5 °F 19.4 °F 69% 30.16 in 10.0 mi SSE 13.8 mph 18.4 mph N/A   Clear
9:34 AM 30.2 °F 19.3 °F 19.4 °F 64% 30.15 in 10.0 mi SSE 15.0 mph 19.6 mph N/A   Clear
9:55 AM 32.0 °F 21.6 °F 21.2 °F 64% 30.14 in 10.0 mi SSE 15.0 mph 23.0 mph N/A   Clear
10:15 AM 32.0 °F 19.8 °F 21.2 °F 64% 30.12 in 10.0 mi SSE 20.7 mph 26.5 mph N/A   Clear
10:35 AM 33.8 °F 22.2 °F 21.2 °F 60% 30.11 in 10.0 mi SSE 20.7 mph 27.6 mph N/A   Clear
10:55 AM 35.6 °F 24.0 °F 23.0 °F 60% 30.10 in 10.0 mi SSE 23.0 mph 31.1 mph N/A   Clear
11:15 AM 35.6 °F 24.2 °F 23.0 °F 60% 30.08 in 10.0 mi SSE 21.9 mph 31.1 mph N/A   Clear
11:35 AM 37.4 °F 26.4 °F 23.0 °F 56% 30.07 in 10.0 mi SSE 23.0 mph 29.9 mph N/A   Clear
11:55 AM 37.4 °F 26.6 °F 23.0 °F 56% 30.04 in 10.0 mi SSE 21.9 mph 29.9 mph N/A   Clear
12:14 PM 41.0 °F 31.4 °F 23.0 °F 49% 30.02 in 10.0 mi SSE 21.9 mph 31.1 mph N/A   Clear
12:35 PM 41.0 °F 31.1 °F 23.0 °F 49% 30.01 in 10.0 mi SSE 23.0 mph 31.1 mph N/A   Clear
12:54 PM 41.0 °F 32.8 °F 24.8 °F 53% 29.99 in 10.0 mi SSE 16.1 mph 25.3 mph N/A   Clear
1:15 PM 42.8 °F 34.0 °F 23.0 °F 46% 29.98 in 10.0 mi South 20.7 mph 27.6 mph N/A   Clear
1:34 PM 44.6 °F 36.9 °F 23.0 °F 43% 29.96 in 10.0 mi SSE 18.4 mph 26.5 mph N/A   Clear
1:55 PM 46.4 °F 38.5 °F 23.0 °F 40% 29.93 in 10.0 mi South 21.9 mph 26.5 mph N/A   Clear
2:14 PM 48.2 °F - 23.0 °F 37% 29.91 in 10.0 mi SSE 20.7 mph 31.1 mph N/A   Clear
2:35 PM 50.0 °F - 23.0 °F 35% 29.89 in 10.0 mi South 23.0 mph 33.4 mph N/A   Clear
2:54 PM 50.0 °F - 23.0 °F 35% 29.89 in 10.0 mi South 19.6 mph 31.1 mph N/A   Clear
3:15 PM 48.2 °F - 23.0 °F 37% 29.89 in 10.0 mi South 20.7 mph 26.5 mph N/A   Clear
3:35 PM 48.2 °F - 23.0 °F 37% 29.88 in 10.0 mi South 13.8 mph 21.9 mph N/A   Clear
3:54 PM 48.2 °F - 23.0 °F 37% 29.88 in 10.0 mi South 15.0 mph 24.2 mph N/A   Clear
4:15 PM 48.2 °F - 23.0 °F 37% 29.88 in 10.0 mi South 11.5 mph 18.4 mph N/A   Scattered Clouds
4:34 PM 46.4 °F 41.1 °F 23.0 °F 40% 29.87 in 10.0 mi SSE 11.5 mph 18.4 mph N/A   Mostly Cloudy
4:55 PM 46.4 °F 40.7 °F 23.0 °F 40% 29.86 in 10.0 mi SSE 12.7 mph 19.6 mph N/A   Scattered Clouds
5:15 PM 44.6 °F 38.1 °F 24.8 °F 46% 29.85 in 10.0 mi SSE 13.8 mph 23.0 mph N/A   Clear
5:34 PM 44.6 °F 37.8 °F 24.8 °F 46% 29.84 in 10.0 mi SSE 15.0 mph 19.6 mph N/A   Clear
5:55 PM 44.6 °F 37.4 °F 26.6 °F 49% 29.84 in 10.0 mi SSE 16.1 mph 21.9 mph N/A   Clear
6:14 PM 44.6 °F 37.8 °F 26.6 °F 49% 29.84 in 10.0 mi South 15.0 mph 20.7 mph N/A   Clear
6:35 PM 44.6 °F 38.4 °F 26.6 °F 49% 29.83 in 10.0 mi SSE 12.7 mph 19.6 mph N/A   Clear
6:55 PM 44.6 °F 37.8 °F 26.6 °F 49% 29.83 in 10.0 mi South 15.0 mph 20.7 mph N/A   Clear
7:14 PM 44.6 °F 38.4 °F 26.6 °F 49% 29.82 in 10.0 mi South 12.7 mph - N/A   Clear
7:35 PM 46.4 °F 39.2 °F 26.6 °F 46% 29.80 in 10.0 mi South 18.4 mph 23.0 mph N/A   Clear
7:55 PM 46.4 °F 39.8 °F 26.6 °F 46% 29.80 in 10.0 mi South 16.1 mph 20.7 mph N/A   Clear
8:14 PM 46.4 °F 39.5 °F 26.6 °F 46% 29.79 in 10.0 mi South 17.3 mph - N/A   Clear
8:35 PM 46.4 °F 40.1 °F 26.6 °F 46% 29.79 in 10.0 mi South 15.0 mph 20.7 mph N/A   Clear
8:55 PM 46.4 °F 39.8 °F 26.6 °F 46% 29.78 in 10.0 mi South 16.1 mph - N/A   Clear
9:14 PM 46.4 °F 39.2 °F 24.8 °F 43% 29.78 in 10.0 mi South 18.4 mph 24.2 mph N/A   Clear
9:35 PM 48.2 °F - 23.0 °F 37% 29.78 in 10.0 mi South 18.4 mph 25.3 mph N/A   Clear
9:55 PM 48.2 °F - 23.0 °F 37% 29.77 in 10.0 mi South 17.3 mph 24.2 mph N/A   Clear
10:15 PM 48.2 °F - 23.0 °F 37% 29.76 in 10.0 mi South 17.3 mph - N/A   Clear
10:35 PM 48.2 °F - 23.0 °F 37% 29.75 in 10.0 mi South 20.7 mph - N/A   Clear
10:54 PM 50.0 °F - 23.0 °F 35% 29.75 in 10.0 mi South 24.2 mph 29.9 mph N/A   Clear
11:15 PM 50.0 °F - 23.0 °F 35% 29.75 in 10.0 mi SSW 26.5 mph 31.1 mph N/A   Mostly Cloudy
11:34 PM 50.0 °F - 21.2 °F 32% 29.75 in 10.0 mi SSW 24.2 mph 32.2 mph N/A   Overcast
11:55 PM 50.0 °F - 21.2 °F 32% 29.75 in 10.0 mi SSW 23.0 mph 31.1 mph N/A   Overcast